User: anonymous   Login
Location: Gro�wechsungen
(51.4926°N, 10.6901°E)
Time: 01:52:33
(UTC+00:00)
Language:

SPOT 3 Rocket - Orbit

View from above orbital plane
View from above orbital plane
View from above satellite
View from above satellite

Ground track
Ground track

The orbit data is extracted from the following two-line orbital elements,

1 22830U 93061H   21136.15932516 -.00000010  00000-0  13172-4 0  9999
2 22830  98.7156 193.5922 0011977  69.5597 290.6871 14.31480474442425
Epoch (UTC): 16 May 2021 03:49:25
Eccentricity: 0.0011977
inclination: 98.7156°
perigee height: 778 km
apogee height: 795 km
right ascension of ascending node: 193.5922°
argument of perigee: 69.5597°
revolutions per day: 14.31480474
mean anomaly at epoch: 290.6871°
orbit number at epoch: 44242

The dashed part of the orbit path shows where the satellite is in the earth's shadow,  

DLR